Ireland West Airport Knock, Ireland

10:19 PM IST on April 30, 2017 (GMT +0100)
Connaught

Weather History for EIKN - May, 2013

Change the Weather History Date:

Friday, May 17, 2013

  Actual Average Record
Temperature  
Mean Temperature 48 °F -  
Max Temperature 58 °F - - ()
Min Temperature 40 °F - - ()
Degree Days  
Heating Degree Days 16    
Moisture  
Dew Point 40 °F    
Average Humidity 71    
Maximum Humidity 100    
Minimum Humidity 44    
Precipitation  
Precipitation 0.20 in - - ()
Sea Level Pressure  
Sea Level Pressure 29.85 in    
Wind  
Wind Speed 6 mph ()    
Max Wind Speed 9 mph    
Max Gust Speed -    
Visibility 6.1 miles    
Events Rain , Thunderstorm    
T = Trace of Precipitation, MM = Missing Value Source: Averaged Metar Reports

Daily Weather History Graph

Daily Weather History Graph

Search for Another Location

Airport or City:

Trip Planner

Search our weather history database for the weather conditions in past years. The results will help you decide how hot, cold, wet, or windy it might be!

Date:

Astronomy

May. 17, 2013 Rise Set
Actual Time 5:29 AM IST 9:34 PM IST
Civil Twilight 4:43 AM IST 10:21 PM IST
Nautical Twilight 3:36 AM IST 11:29 PM IST
Astronomical Twilight 2:04 AM IST 12:59 AM IST
Moon 12:13 PM IST (5/17) 1:58 AM IST (5/17)
Length of Visible Light 17h 37m
Length of Day
16h 05m
Waxing Crescent, 43% of the Moon is Illuminated
May 17
Waxing Crescent
May 18
First Quarter
May 25
Full
May 31
Last Quarter
Jun 8
New

Hourly Weather History & Observations

Time (IST) Temp. Windchill Dew Point Humidity Pressure Visibility Wind Dir Wind Speed Gust Speed Precip Events Conditions
1:00 AM 42 °F - 42 °F 100% 29.69 in - NNE 4.5 mph - -  
7:00 AM 42 °F - 42 °F 98% 29.81 in 22 mi North 4.5 mph - -   Scattered Clouds
7:00 AM 42.8 °F 40.1 °F 41.0 °F 93% 29.77 in 6.2 mi North 4.6 mph - N/A   Partly Cloudy
7:30 AM 42.8 °F 41.1 °F 41.0 °F 93% 29.77 in 6.2 mi North 3.5 mph - N/A   Partly Cloudy
8:00 AM 44.6 °F 41.4 °F 42.8 °F 93% 29.80 in 6.2 mi North 5.8 mph - N/A   Partly Cloudy
8:30 AM 46.4 °F 43.5 °F 42.8 °F 87% 29.80 in 6.2 mi North 5.8 mph - N/A   Partly Cloudy
9:00 AM 48.2 °F - 42.8 °F 82% 29.83 in 6.2 mi North 6.9 mph - N/A   Partly Cloudy
9:30 AM 48.2 °F - 42.8 °F 82% 29.83 in 6.2 mi NE 8.1 mph - N/A   Scattered Clouds
10:00 AM 50.0 °F - 42.8 °F 76% 29.83 in 6.2 mi NNE 9.2 mph - N/A   Scattered Clouds
10:30 AM 50.0 °F - 37.4 °F 62% 29.83 in 6.2 mi North 8.1 mph - N/A   Scattered Clouds
11:00 AM 51.8 °F - 33.8 °F 50% 29.86 in 6.2 mi NNE 9.2 mph - N/A   Partly Cloudy
11:30 AM 51.8 °F - 35.6 °F 54% 29.86 in 6.2 mi NNE 6.9 mph - N/A   Partly Cloudy
12:00 PM 53.6 °F - 35.6 °F 51% 29.86 in 6.2 mi North 6.9 mph - N/A   Scattered Clouds
12:30 PM 53.6 °F - 37.4 °F 54% 29.86 in 6.2 mi North 6.9 mph - N/A   Scattered Clouds
1:00 PM 55 °F - 39 °F 44% 29.88 in 37 mi NNE 8.9 mph - -   Mostly Cloudy
1:00 PM 55.4 °F - 39.2 °F 54% 29.86 in 6.2 mi NNE 8.1 mph - N/A   Mostly Cloudy
1:30 PM 53.6 °F - 37.4 °F 54% 29.89 in 6.2 mi NNE 8.1 mph - N/A   Scattered Clouds
2:00 PM 55.4 °F - 37.4 °F 51% 29.89 in 6.2 mi North 4.6 mph - N/A   Scattered Clouds
2:30 PM 55.4 °F - 37.4 °F 51% 29.89 in 6.2 mi Variable 2.3 mph - N/A   Scattered Clouds
3:00 PM 57.2 °F - 39.2 °F 51% 29.86 in 6.2 mi North 4.6 mph - N/A   Scattered Clouds
3:30 PM 55.4 °F - 41.0 °F 58% 29.86 in 6.2 mi North 9.2 mph - N/A   Mostly Cloudy
4:00 PM 51.8 °F - 44.6 °F 76% 29.89 in 5.0 mi North 9.2 mph - N/A Rain , Thunderstorm Light Thunderstorms and Rain
4:30 PM 44.6 °F 39.7 °F 42.8 °F 93% 29.92 in 4.3 mi ESE 9.2 mph - N/A Rain , Thunderstorm Light Thunderstorms and Rain
5:00 PM 46.4 °F 44.3 °F 41.0 °F 81% 29.89 in 6.2 mi NE 4.6 mph - N/A   Mostly Cloudy
5:30 PM 48.2 °F - 41.0 °F 76% 29.92 in 6.2 mi North 4.6 mph - N/A   Mostly Cloudy
6:00 PM 51.8 °F - 44.6 °F 76% 29.92 in 6.2 mi NNW 6.9 mph - N/A   Partly Cloudy
7:00 PM 52 °F - 44 °F 65% 29.94 in 25 mi North 8.9 mph - - Rain Light Rain Showers